Date String (YYYY-MM-DD hh:mm:ss) UTC,Instrument flags,absolute air pressure of the measurement (hPa),sample flow rate (lpm),inlet stack bypass flow (lpm),air temperature of the measurement (°C),ambient temperature measured by the external sensor (°C),aerosol sample conditioner tube jacket temperature (°C),OPC LED temperature (°C),internal box temperature (°C),relative humidity of the measurement (%),span deviation,mass concentration of particles derived from Lorenz-Mie calculation of OPC scattering (μg/m³),mass concentration of particles derived from Lorenz-Mie calculation of OPC scattering (μg/m³),mass concentration of particles derived from Lorenz-Mie calculation of OPC scattering (μg/m³)
DateTimeUTC,F1_M11,P_M11,Q1_M11,Q2_M11,T1_M11,T2_M11,T3_M11,T4_M11,T5_M11,U1_M11,ZSPAN_M11,X2_M11,X0_M11,X1_M11
2024-06-10 23:00:00,SystemResetWarning,0826.2,4.99,000.00,029.9,029.4,000.0,038.0,031.7,024.3,0000.0,0004.15,0009.75,0003.42
2024-06-10 23:01:00,SystemResetWarning,0826.2,4.99,000.00,030.0,029.5,000.0,038.1,031.8,024.6,0000.0,0004.14,0009.63,0003.42
2024-06-10 23:02:00,SystemResetWarning,0826.2,5.00,000.00,030.0,029.5,000.0,038.1,031.7,024.7,0000.0,0004.18,0009.54,0003.44
2024-06-10 23:03:00,SystemResetWarning,0826.2,5.00,000.00,030.0,029.5,000.0,038.2,031.8,024.5,0000.0,0004.23,0009.62,0003.46
2024-06-10 23:04:00,SystemResetWarning,0826.2,5.01,000.00,030.1,029.6,000.0,038.2,031.9,024.2,0000.0,0004.26,0009.68,0003.47
2024-06-10 23:05:00,SystemResetWarning,0826.2,5.01,000.00,030.1,029.6,000.0,038.2,031.9,024.4,0000.0,0004.28,0009.66,0003.48
2024-06-10 23:06:00,SystemResetWarning,0826.2,5.01,000.00,030.1,029.6,000.0,038.3,031.9,024.5,0000.0,0004.30,0009.63,0003.49
2024-06-10 23:07:00,SystemResetWarning,0826.2,5.00,000.00,030.2,029.6,000.0,038.3,032.0,024.9,0000.0,0004.28,0009.55,0003.50
2024-06-10 23:08:00,SystemResetWarning,0826.2,5.00,000.00,030.2,029.7,000.0,038.3,032.0,025.9,0000.0,0004.26,0010.03,0003.51
2024-06-10 23:09:00,SystemResetWarning,0826.2,5.00,000.00,030.2,029.7,000.0,038.3,032.0,026.1,0000.0,0004.23,0009.39,0003.52
2024-06-10 23:10:00,SystemResetWarning,0826.2,5.00,000.00,030.2,029.7,000.0,038.4,032.0,026.4,0000.0,0004.28,0009.92,0003.52
2024-06-10 23:11:00,SystemResetWarning,0826.2,4.99,000.00,030.1,028.5,000.0,038.4,031.3,025.8,0000.0,0004.28,0009.46,0003.53
2024-06-10 23:12:00,SystemResetWarning,0826.1,5.02,000.00,029.7,026.6,000.0,038.5,030.4,026.8,0000.0,0004.30,0009.58,0003.53
2024-06-10 23:13:00,SystemResetWarning,0826.2,5.00,000.00,029.5,026.5,000.0,038.4,030.3,028.4,0000.0,0004.33,0009.73,0003.54
2024-06-10 23:14:00,SystemResetWarning,0826.2,4.99,000.00,029.4,026.8,000.0,038.3,030.4,028.3,0000.0,0004.29,0009.61,0003.55
2024-06-10 23:15:00,SystemResetWarning,0826.2,5.01,000.00,029.4,027.2,000.0,038.2,030.7,028.9,0000.0,0004.29,0009.62,0003.55
2024-06-10 23:16:00,SystemResetWarning,0826.2,5.00,000.00,029.4,027.6,000.0,038.1,030.9,028.2,0000.0,0004.36,0009.90,0003.56
2024-06-10 23:17:00,SystemResetWarning,0826.2,4.99,000.00,029.4,027.9,000.0,038.1,031.0,027.9,0000.0,0004.36,0009.94,0003.57
2024-06-10 23:18:00,SystemResetWarning,0826.2,5.00,000.00,029.5,028.2,000.0,038.0,031.1,028.5,0000.0,0004.40,0010.02,0003.57
2024-06-10 23:19:00,SystemResetWarning,0826.2,5.00,000.00,029.5,028.4,000.0,038.0,031.2,028.9,0000.0,0004.41,0009.76,0003.57
2024-06-10 23:20:00,SystemResetWarning,0826.1,5.00,000.00,029.6,028.6,000.0,038.0,031.3,027.8,0000.0,0004.47,0009.35,0003.57
2024-06-10 23:21:00,SystemResetWarning,0826.1,5.00,000.00,029.6,028.7,000.0,038.0,031.3,027.9,0000.0,0004.48,0008.85,0003.58
2024-06-10 23:22:00,SystemResetWarning,0826.1,5.01,000.00,029.6,028.9,000.0,038.0,031.4,027.3,0000.0,0004.46,0008.96,0003.58
2024-06-10 23:23:00,SystemResetWarning,0826.2,5.01,000.00,029.7,029.0,000.0,038.0,031.5,026.8,0000.0,0004.53,0008.99,0003.60
2024-06-10 23:24:00,SystemResetWarning,0826.2,5.00,000.00,029.7,029.1,000.0,038.1,031.5,026.7,0000.0,0004.51,0008.86,0003.59
2024-06-10 23:25:00,SystemResetWarning,0826.2,4.99,000.00,029.8,029.1,000.0,038.1,031.5,026.6,0000.0,0004.52,0009.08,0003.59
2024-06-10 23:26:00,SystemResetWarning,0826.2,5.01,000.00,029.8,029.2,000.0,038.1,031.6,026.9,0000.0,0004.53,0009.82,0003.58
2024-06-10 23:27:00,SystemResetWarning,0826.2,5.00,000.00,029.9,029.3,000.0,038.1,031.6,027.2,0000.0,0004.55,0009.82,0003.60
2024-06-10 23:28:00,SystemResetWarning,0826.2,5.01,000.00,029.9,029.3,000.0,038.1,031.7,027.3,0000.0,0004.56,0010.56,0003.61
2024-06-10 23:29:00,SystemResetWarning,0826.2,4.99,000.00,029.9,029.4,000.0,038.2,031.7,027.0,0000.0,0004.58,0010.85,0003.63
2024-06-10 23:30:00,SystemResetWarning,0826.2,4.99,000.00,030.0,029.4,000.0,038.2,031.8,026.5,0000.0,0004.60,0010.87,0003.64
2024-06-10 23:31:00,SystemResetWarning,0826.2,4.99,000.00,030.0,029.5,000.0,038.2,031.8,026.3,0000.0,0004.59,0011.04,0003.64
2024-06-10 23:32:00,SystemResetWarning,0826.2,5.01,000.00,030.1,029.5,000.0,038.2,031.8,026.8,0000.0,0004.56,0011.44,0003.63
2024-06-10 23:33:00,SystemResetWarning,0826.2,5.01,000.00,030.1,029.6,000.0,038.3,031.9,025.4,0000.0,0004.55,0012.43,0003.63
2024-06-10 23:34:00,SystemResetWarning,0826.2,5.00,000.00,030.1,029.6,000.0,038.3,031.9,025.8,0000.0,0004.51,0012.52,0003.63
2024-06-10 23:35:00,SystemResetWarning,0826.2,4.99,000.00,030.2,029.7,000.0,038.4,032.0,025.6,0000.0,0004.51,0013.36,0003.63
2024-06-10 23:36:00,SystemResetWarning,0826.1,5.00,000.00,030.2,029.7,000.0,038.4,032.0,025.7,0000.0,0004.49,0013.38,0003.63
2024-06-10 23:37:00,SystemResetWarning,0826.1,4.99,000.00,030.2,029.0,000.0,038.4,031.6,025.9,0000.0,0004.47,0013.21,0003.63
2024-06-10 23:38:00,SystemResetWarning,0826.0,5.01,000.00,029.9,027.2,000.0,038.5,030.7,024.5,0000.0,0004.43,0013.09,0003.63
2024-06-10 23:39:00,SystemResetWarning,0826.0,5.01,000.00,029.6,026.8,000.0,038.4,030.5,024.6,0000.0,0004.35,0012.84,0003.62
2024-06-10 23:40:00,SystemResetWarning,0825.9,5.00,000.00,029.5,027.1,000.0,038.3,030.6,025.3,0000.0,0004.31,0012.39,0003.60
2024-06-10 23:41:00,SystemResetWarning,0826.0,5.00,000.00,029.5,027.5,000.0,038.2,030.8,025.4,0000.0,0004.30,0012.42,0003.60
2024-06-10 23:42:00,SystemResetWarning,0826.0,5.00,000.00,029.5,027.8,000.0,038.2,031.0,026.3,0000.0,0004.28,0012.30,0003.60
2024-06-10 23:43:00,SystemResetWarning,0826.0,4.99,000.00,029.6,028.1,000.0,038.1,031.1,025.6,0000.0,0004.27,0012.15,0003.58
2024-06-10 23:44:00,SystemResetWarning,0826.0,5.00,000.00,029.6,028.4,000.0,038.1,031.2,024.9,0000.0,0004.30,0012.01,0003.57
2024-06-10 23:45:00,SystemResetWarning,0826.0,4.99,000.00,029.6,028.6,000.0,038.1,031.3,025.3,0000.0,0004.31,0010.92,0003.57
2024-06-10 23:46:00,SystemResetWarning,0826.0,5.00,000.00,029.7,028.8,000.0,038.1,031.4,024.0,0000.0,0004.29,0010.44,0003.56
2024-06-10 23:47:00,SystemResetWarning,0826.0,5.00,000.00,029.7,028.9,000.0,038.1,031.5,024.2,0000.0,0004.26,0009.87,0003.56
2024-06-10 23:48:00,SystemResetWarning,0826.0,5.00,000.00,029.8,029.1,000.0,038.1,031.5,024.6,0000.0,0004.26,0009.31,0003.55
2024-06-10 23:49:00,SystemResetWarning,0825.9,5.01,000.00,029.8,029.2,000.0,038.1,031.6,025.0,0000.0,0004.31,0009.34,0003.55
2024-06-10 23:50:00,SystemResetWarning,0825.9,5.01,000.00,029.9,029.3,000.0,038.1,031.7,024.1,0000.0,0004.36,0009.94,0003.56
2024-06-10 23:51:00,SystemResetWarning,0825.9,5.00,000.00,029.9,029.4,000.0,038.2,031.7,024.3,0000.0,0004.39,0010.05,0003.56
2024-06-10 23:52:00,SystemResetWarning,0825.9,5.00,000.00,030.0,029.4,000.0,038.2,031.8,024.4,0000.0,0004.37,0010.00,0003.55
2024-06-10 23:53:00,SystemResetWarning,0825.9,5.00,000.00,030.0,029.5,000.0,038.2,031.8,023.9,0000.0,0004.35,0010.88,0003.55
2024-06-10 23:54:00,SystemResetWarning,0825.9,5.00,000.00,030.1,029.6,000.0,038.3,031.8,024.4,0000.0,0004.34,0010.71,0003.55
2024-06-10 23:55:00,SystemResetWarning,0825.9,5.00,000.00,030.1,029.6,000.0,038.3,031.9,024.6,0000.0,0004.33,0010.55,0003.57
2024-06-10 23:56:00,SystemResetWarning,0825.9,5.00,000.00,030.2,029.6,000.0,038.3,031.9,023.8,0000.0,0004.30,0010.67,0003.56
2024-06-10 23:57:00,SystemResetWarning,0825.9,4.98,000.00,030.1,028.3,000.0,038.4,031.3,023.8,0000.0,0004.29,0010.92,0003.56
2024-06-10 23:58:00,SystemResetWarning,0825.9,5.02,000.00,029.7,026.8,000.0,038.4,030.5,024.3,0000.0,0004.30,0011.92,0003.55
2024-06-10 23:59:00,SystemResetWarning,0825.9,5.00,000.00,029.5,026.8,000.0,038.3,030.4,025.2,0000.0,0004.28,0011.93,0003.56
